Date String (YYYY-MM-DD hh:mm:ss) UTC,Instrument flags,absolute air pressure of the measurement (hPa),sample flow rate (lpm),inlet stack bypass flow (lpm),air temperature of the measurement (°C),ambient temperature measured by the external sensor (°C),aerosol sample conditioner tube jacket temperature (°C),OPC LED temperature (°C),internal box temperature (°C),relative humidity of the measurement (%),span deviation,mass concentration of particles derived from Lorenz-Mie calculation of OPC scattering (μg/m³),mass concentration of particles derived from Lorenz-Mie calculation of OPC scattering (μg/m³),mass concentration of particles derived from Lorenz-Mie calculation of OPC scattering (μg/m³)
DateTimeUTC,F1_M11,P_M11,Q1_M11,Q2_M11,T1_M11,T2_M11,T3_M11,T4_M11,T5_M11,U1_M11,ZSPAN_M11,X0_M11,X2_M11,X1_M11
2024-01-12 21:00:00,SystemResetWarning,0814.1,5.00,000.00,018.8,017.6,000.0,027.2,020.0,7.5,0000.0,0001.68,0000.72,0000.38
2024-01-12 21:01:00,SystemResetWarning,0814.1,5.01,000.00,018.8,017.5,000.0,027.2,020.0,7.5,0000.0,0001.80,0000.74,0000.37
2024-01-12 21:02:00,SystemResetWarning,0814.1,5.01,000.00,018.8,017.5,000.0,027.2,020.0,7.5,0000.0,0001.99,0000.74,0000.36
2024-01-12 21:03:00,SystemResetWarning,0814.1,5.00,000.00,018.8,017.4,000.0,027.3,020.0,7.5,0000.0,0002.15,0000.78,0000.36
2024-01-12 21:04:00,SystemResetWarning,0814.1,5.00,000.00,018.8,017.4,000.0,027.2,020.0,7.5,0000.0,0002.20,0000.75,0000.35
2024-01-12 21:05:00,SystemResetWarning,0814.0,4.99,000.00,018.8,017.4,000.0,027.2,020.0,7.4,0000.0,0002.30,0000.75,0000.34
2024-01-12 21:06:00,SystemResetWarning,0814.1,5.00,000.00,018.8,017.3,000.0,027.2,020.0,7.5,0000.0,0002.38,0000.78,0000.34
2024-01-12 21:07:00,SystemResetWarning,0814.2,5.00,000.00,018.7,017.3,000.0,027.2,020.0,7.6,0000.0,0002.37,0000.78,0000.34
2024-01-12 21:08:00,SystemResetWarning,0814.2,5.00,000.00,018.7,017.2,000.0,027.2,020.0,7.6,0000.0,0002.32,0000.75,0000.34
2024-01-12 21:09:00,SystemResetWarning,0814.3,5.00,000.00,018.7,017.2,000.0,027.2,020.0,7.4,0000.0,0002.40,0000.74,0000.34
2024-01-12 21:10:00,SystemResetWarning,0814.3,5.00,000.00,018.7,017.2,000.0,027.2,020.0,7.4,0000.0,0002.36,0000.76,0000.34
2024-01-12 21:11:00,SystemResetWarning,0814.3,4.99,000.00,018.7,017.2,000.0,027.2,020.0,7.2,0000.0,0002.57,0000.78,0000.35
2024-01-12 21:12:00,SystemResetWarning,0814.3,5.00,000.00,018.7,017.2,000.0,027.2,020.0,7.3,0000.0,0002.63,0000.76,0000.35
2024-01-12 21:13:00,SystemResetWarning,0814.3,4.99,000.00,018.7,017.2,000.0,027.2,020.0,7.5,0000.0,0002.39,0000.74,0000.35
2024-01-12 21:14:00,SystemResetWarning,0814.2,5.00,000.00,018.7,017.2,000.0,027.2,020.0,7.5,0000.0,0002.44,0000.79,0000.35
2024-01-12 21:15:00,SystemResetWarning,0814.2,4.99,000.00,018.7,017.2,000.0,027.2,020.0,7.5,0000.0,0002.44,0000.82,0000.36
2024-01-12 21:16:00,SystemResetWarning,0814.2,5.00,000.00,018.7,017.2,000.0,027.2,020.0,7.6,0000.0,0002.57,0000.84,0000.37
2024-01-12 21:17:00,SystemResetWarning,0814.3,5.00,000.00,018.7,017.2,000.0,027.2,020.0,7.7,0000.0,0003.05,0000.83,0000.38
2024-01-12 21:18:00,SystemResetWarning,0814.3,5.00,000.00,018.7,017.2,000.0,027.2,020.0,7.7,0000.0,0004.60,0000.86,0000.39
2024-01-12 21:19:00,SystemResetWarning,0814.2,5.00,000.00,018.7,017.2,000.0,027.2,020.0,7.7,0000.0,0004.60,0000.85,0000.39
2024-01-12 21:20:00,SystemResetWarning,0814.3,5.00,000.00,018.6,017.2,000.0,027.2,020.0,7.6,0000.0,0004.53,0000.85,0000.39
2024-01-12 21:21:00,SystemResetWarning,0814.3,5.01,000.00,018.6,017.1,000.0,027.2,020.0,7.5,0000.0,0004.37,0000.82,0000.38
2024-01-12 21:22:00,SystemResetWarning,0814.3,5.00,000.00,018.6,017.1,000.0,027.2,020.0,7.6,0000.0,0004.18,0000.81,0000.37
2024-01-12 21:23:00,SystemResetWarning,0814.3,5.01,000.00,018.7,017.4,000.0,027.2,020.3,7.7,0000.0,0004.25,0000.85,0000.38
2024-01-12 21:24:00,SystemResetWarning,0814.3,5.00,000.00,018.8,018.4,000.0,027.2,020.7,7.8,0000.0,0004.46,0000.88,0000.39
2024-01-12 21:25:00,SystemResetWarning,0814.3,4.99,000.00,018.9,019.0,000.0,027.2,020.8,7.8,0000.0,0004.27,0000.78,0000.38
2024-01-12 21:26:00,SystemResetWarning,0814.3,5.01,000.00,019.0,019.0,000.0,027.2,020.5,7.9,0000.0,0004.25,0000.76,0000.38
2024-01-12 21:27:00,SystemResetWarning,0814.3,5.02,000.00,019.0,018.8,000.0,027.2,020.3,8.0,0000.0,0004.14,0000.75,0000.38
2024-01-12 21:28:00,SystemResetWarning,0814.3,5.01,000.00,018.9,018.5,000.0,027.2,020.2,7.9,0000.0,0004.01,0000.75,0000.37
2024-01-12 21:29:00,SystemResetWarning,0814.3,5.01,000.00,018.9,018.3,000.0,027.2,020.1,7.9,0000.0,0002.17,0000.72,0000.36
2024-01-12 21:30:00,SystemResetWarning,0814.3,5.00,000.00,018.9,018.1,000.0,027.2,020.0,7.8,0000.0,0002.31,0000.74,0000.35
2024-01-12 21:31:00,SystemResetWarning,0814.3,4.99,000.00,018.8,018.0,000.0,027.2,020.0,7.8,0000.0,0002.29,0000.75,0000.34
2024-01-12 21:32:00,SystemResetWarning,0814.3,4.99,000.00,018.8,017.9,000.0,027.2,020.0,7.9,0000.0,0002.30,0000.75,0000.35
2024-01-12 21:33:00,SystemResetWarning,0814.3,5.01,000.00,018.8,017.8,000.0,027.2,020.0,7.9,0000.0,0002.20,0000.73,0000.35
2024-01-12 21:34:00,SystemResetWarning,0814.3,5.01,000.00,018.8,017.7,000.0,027.2,020.0,8.0,0000.0,0001.98,0000.70,0000.36
2024-01-12 21:35:00,SystemResetWarning,0814.3,5.01,000.00,018.8,017.7,000.0,027.2,020.0,8.0,0000.0,0001.93,0000.70,0000.36
2024-01-12 21:36:00,SystemResetWarning,0814.3,5.00,000.00,018.8,017.6,000.0,027.2,020.0,8.0,0000.0,0001.96,0000.72,0000.36
2024-01-12 21:37:00,SystemResetWarning,0814.3,5.00,000.00,018.8,017.6,000.0,027.2,020.0,7.9,0000.0,0001.88,0000.72,0000.36
2024-01-12 21:38:00,SystemResetWarning,0814.3,5.00,000.00,018.7,017.5,000.0,027.2,020.0,8.0,0000.0,0001.91,0000.69,0000.36
2024-01-12 21:39:00,SystemResetWarning,0814.3,5.00,000.00,018.7,017.5,000.0,027.2,020.0,7.9,0000.0,0002.04,0000.70,0000.37
2024-01-12 21:40:00,SystemResetWarning,0814.3,5.00,000.00,018.7,017.5,000.0,027.2,020.0,7.8,0000.0,0001.99,0000.71,0000.37
2024-01-12 21:41:00,SystemResetWarning,0814.3,5.00,000.00,018.7,017.5,000.0,027.2,020.0,7.6,0000.0,0001.90,0000.71,0000.37
2024-01-12 21:42:00,SystemResetWarning,0814.3,5.00,000.00,018.7,017.5,000.0,027.2,020.0,7.7,0000.0,0002.09,0000.74,0000.37
2024-01-12 21:43:00,SystemResetWarning,0814.1,5.00,000.00,018.7,017.5,000.0,027.2,020.0,7.8,0000.0,0002.11,0000.74,0000.37
2024-01-12 21:44:00,SystemResetWarning,0814.3,5.00,000.00,018.7,017.4,000.0,027.2,020.0,7.8,0000.0,0002.07,0000.72,0000.36
2024-01-12 21:45:00,SystemResetWarning,0814.3,5.00,000.00,018.7,017.4,000.0,027.2,020.0,7.8,0000.0,0002.08,0000.73,0000.36
2024-01-12 21:46:00,SystemResetWarning,0814.3,5.00,000.00,018.7,017.4,000.0,027.2,020.0,7.8,0000.0,0002.04,0000.73,0000.36
2024-01-12 21:47:00,SystemResetWarning,0814.3,5.00,000.00,018.7,017.4,000.0,027.2,020.0,7.8,0000.0,0002.80,0000.79,0000.37
2024-01-12 21:48:00,SystemResetWarning,0814.2,5.01,000.00,018.7,017.4,000.0,027.2,020.0,7.7,0000.0,0003.89,0000.89,0000.39
2024-01-12 21:49:00,SystemResetWarning,0814.1,5.00,000.00,018.7,017.4,000.0,027.2,020.0,7.7,0000.0,0004.33,0000.96,0000.40
2024-01-12 21:50:00,SystemResetWarning,0814.1,5.00,000.00,018.7,017.4,000.0,027.2,020.0,7.8,0000.0,0003.99,0000.95,0000.40
2024-01-12 21:51:00,SystemResetWarning,0814.1,5.00,000.00,018.7,017.4,000.0,027.2,020.0,7.8,0000.0,0004.85,0000.94,0000.39
2024-01-12 21:52:00,SystemResetWarning,0814.1,5.00,000.00,018.7,017.3,000.0,027.2,020.0,7.8,0000.0,0005.53,0000.91,0000.40
2024-01-12 21:53:00,SystemResetWarning,0814.2,5.00,000.00,018.7,017.3,000.0,027.2,020.0,7.7,0000.0,0005.88,0000.89,0000.41
2024-01-12 21:54:00,SystemResetWarning,0814.1,5.00,000.00,018.7,017.3,000.0,027.2,020.0,7.8,0000.0,0005.78,0000.89,0000.41
2024-01-12 21:55:00,SystemResetWarning,0814.0,5.00,000.00,018.7,017.3,000.0,027.2,020.0,7.9,0000.0,0005.92,0000.92,0000.43
2024-01-12 21:56:00,SystemResetWarning,0813.9,5.00,000.00,018.7,017.3,000.0,027.2,020.0,7.9,0000.0,0006.04,0000.94,0000.44
2024-01-12 21:57:00,SystemResetWarning,0813.9,5.00,000.00,018.7,017.3,000.0,027.2,020.0,7.9,0000.0,0005.92,0000.89,0000.44
2024-01-12 21:58:00,SystemResetWarning,0813.9,5.00,000.00,018.7,017.2,000.0,027.2,020.0,7.9,0000.0,0005.68,0000.87,0000.44
2024-01-12 21:59:00,SystemResetWarning,0813.8,5.00,000.00,018.7,017.2,000.0,027.2,020.0,7.9,0000.0,0004.78,0000.81,0000.44
